Home   Weather   Lillestrøm   Past weeks

Flag for Norway Past Weather in Lillestrøm, Norway — Yesterday and Last 2 Weeks

Now
34 °F

Chilly.


Feels Like: 34 °F
Forecast: 33 / 44 °F
Wind: 2 mph from Southwest

Location: Oslo-Blindern

Current Time: Dec 7, 2016 at 9:43:28 am

Latest Report: Dec 7, 2016 at 9:00 am


Visibility: 7 mi

Pressure: 30.09 "Hg

Humidity: 93%

Dew Point: 32 °F

Location of LillestrømLocation

Past Weather in Lillestrøm — Graph

°F

Lillestrøm Temperature Yesterday

Maximum temperature yesterday: 31 °F (at 12:00 pm)
Minimum temperature yesterday: 27 °F (at 7:00 pm)
Average temperature yesterday: 29 °F

High & Low Weather Summary for the Past Weeks

 TemperatureHumidityPressure
High48 °F (Nov 26, 12:00 pm)100% (Nov 22, 3:00 pm)30.46 "Hg (Nov 22, 3:00 pm)
Low24 °F (Dec 4, 7:00 am)38% (Nov 26, 2:00 pm)29.56 "Hg (Nov 26, 4:00 pm)
Average34 °F76%30.02 "Hg
* Reported Nov 22 7:00 am — Dec 7 7:00 am, Lillestrøm, Weather by CustomWeather, © 2016

Note: Actual official high and low records may vary slightly from our data, if they occured in-between our weather recording intervals... More about our weather records

Advertising

Lillestrøm Weather History for the Previous 24 Hours

Scroll right to see more
 ConditionsComfort  
Time TempWeatherWind HumidityBarometerVisibility
7:00 am
Wed, Dec 7
34 °FChilly.1 mph95%30.14 "Hg7 mi
6:00 am33 °FChilly.1 mph94%30.16 "Hg10 mi
5:00 am32 °FChilly.2 mph95%30.19 "Hg12 mi
4:00 am31 °FChilly.No wind95%30.22 "Hg16 mi
3:00 am29 °FChilly.1 mph96%30.25 "HgN/A
2:00 am28 °FChilly.1 mph96%30.28 "Hg11 mi
1:00 am26 °FChilly.No wind96%30.30 "Hg11 mi
7:00 pm
Tue, Dec 6
27 °FPassing clouds.2 mph91%30.39 "Hg25 mi
6:00 pm27 °FChilly.1 mph92%30.41 "Hg22 mi
5:00 pm28 °FChilly.No wind90%30.40 "Hg22 mi
4:00 pm29 °FPassing clouds.1 mph88%30.41 "Hg37 mi
3:00 pm30 °FChilly.1 mph86%30.41 "Hg25 mi
2:00 pmN/AN/AN/AN/A17 mi
1:00 pmN/APartly sunny.N/AN/AN/A37 mi
12:00 pm31 °FChilly.1 mph81%30.41 "HgN/A
11:00 am31 °FChilly.No wind80%30.41 "Hg28 mi
10:00 am30 °FChilly.1 mph81%30.40 "HgN/A
9:00 am28 °FChilly.1 mph85%30.39 "HgN/A
Weather by CustomWeather, © 2016

See weather overviewHow to use our weather pages